Weather reports worldwide

Advertisment
Leeming, United Kingdom (3257): temperature & dewpoint: 19.09.2018 11:00:00 - 25.09.2018 11:00:00 (BST)Leeming, United Kingdom (3257): temperature -20cm & temperature -100cm: 19.09.2018 11:00:00 - 25.09.2018 11:00:00 (BST)Leeming, United Kingdom (3257): wind speed & gusts: 19.09.2018 11:00:00 - 25.09.2018 11:00:00 (BST)Leeming, United Kingdom (3257): wind direction: 19.09.2018 11:00:00 - 25.09.2018 11:00:00 (BST)Leeming, United Kingdom (3257): reduced air pressure: 19.09.2018 11:00:00 - 25.09.2018 11:00:00 (BST)Leeming, United Kingdom (3257): visibility: 19.09.2018 11:00:00 - 25.09.2018 11:00:00 (BST)Leeming, United Kingdom (3257): sunshine duration: 19.09.2018 11:00:00 - 25.09.2018 11:00:00 (BST)Leeming, United Kingdom (3257): precipitation: 19.09.2018 11:00:00 - 25.09.2018 11:00:00 (BST)
Date & Time tt [°C] td [°C] tt -20cm [°C] tt -100cm [°C] ff [km/h] ff [kn] fx [km/h] fx [kn] dd ppp [hPa] vv [km] sd [min] rr [mm]
25.09.2018 11:00:00 - - - - - - - - - - - - -
25.09.2018 10:00:00 9,7 6,2 11,7 14,2 15 8 - - SE 1036,5 10 60 0,0
25.09.2018 09:00:00 6,8 5,3 - - 11 6 - - SSE 1037,0 10 60 0,0
25.09.2018 08:00:00 4,5 4,0 - - 8 4 - - SSE 1037,0 10 12 0,0
25.09.2018 07:00:00 4,2 3,6 - - 11 6 - - SSE 1036,8 50 0 0,0
25.09.2018 06:00:00 4,9 4,3 - - 11 6 - - SSE 1036,6 25 0 0,0
25.09.2018 05:00:00 5,4 4,6 - - 9 5 - - SSE 1036,9 35 0 0,0
25.09.2018 04:00:00 4,6 2,7 - - 4 2 - - ESE 1037,3 35 0 0,0
25.09.2018 03:00:00 6,5 4,8 - - 5 3 - - S 1037,7 40 0 0,0
25.09.2018 02:00:00 7,7 4,9 - - 2 1 - - SSE 1037,6 50 0 0,0
25.09.2018 01:00:00 8,1 5,3 - - 8 4 - - WSW 1038,0 50 - 0,0
25.09.2018 00:00:00 9,0 6,0 - - 4 2 - - SSW 1038,1 50 0 0,0
24.09.2018 23:00:00 7,7 4,3 - - 2 1 - - W 1037,8 10 0 0,0
24.09.2018 22:00:00 9,5 5,9 - - 15 8 - - W 1037,3 50 0 0,0
24.09.2018 21:00:00 8,9 5,9 - - 11 6 - - W 1037,8 45 0 0,0
24.09.2018 20:00:00 9,4 5,3 - - 8 4 - - W 1037,3 50 0 0,0
24.09.2018 19:00:00 11,3 5,8 - - 16 9 - - W 1036,9 50 24 0,0
24.09.2018 18:00:00 12,3 5,4 - - 21 11 - - W 1036,6 50 36 0,0
24.09.2018 17:00:00 14,8 5,7 - - 18 10 - - WNW 1036,5 10 48 0,0
24.09.2018 16:00:00 15,2 5,1 - - 16 9 - - W 1036,6 10 48 0,0
24.09.2018 15:00:00 14,3 4,7 - - 22 12 - - NW 1036,8 10 36 0,0
24.09.2018 14:00:00 13,9 4,6 - - 21 11 - - WNW 1036,9 10 30 0,0
24.09.2018 13:00:00 14,1 4,4 - - 28 15 - - NW 1036,9 10 60 0,0
24.09.2018 12:00:00 13,5 5,0 - - 26 14 - - NW 1036,8 10 60 0,0
24.09.2018 11:00:00 12,6 5,9 - - 18 10 - - WNW 1036,9 10 60 0,0
24.09.2018 10:00:00 10,3 4,5 11,7 14,4 11 6 - - WNW 1036,6 10 60 0,0
24.09.2018 09:00:00 8,4 4,0 - - 13 7 - - W 1036,0 10 60 0,0
24.09.2018 08:00:00 6,0 3,0 - - 11 6 - - W 1035,6 10 30 0,0
24.09.2018 07:00:00 4,2 1,6 - - 11 6 - - WNW 1034,9 40 0 0,0
24.09.2018 06:00:00 4,6 2,6 - - 13 7 - - W 1034,6 10 0 0,0
24.09.2018 05:00:00 4,8 2,5 - - 11 6 - - W 1034,3 35 0 0,0
24.09.2018 04:00:00 5,7 3,4 - - 13 7 - - W 1033,7 50 0 0,0
24.09.2018 03:00:00 5,8 3,4 - - 9 5 - - W 1033,3 50 0 0,0
24.09.2018 02:00:00 6,2 4,0 - - 15 8 - - W 1032,4 50 0 0,0
24.09.2018 01:00:00 6,5 4,1 - - 13 7 - - W 1031,1 50 - 0,0
24.09.2018 00:00:00 6,1 4,1 - - 15 8 - - WSW 1030,6 50 0 0,0
23.09.2018 23:00:00 7,5 4,4 - - 15 8 - - WNW 1029,3 50 0 0,0
23.09.2018 22:00:00 5,5 3,9 - - 8 4 - - WSW 1028,7 50 0 0,0
23.09.2018 21:00:00 6,5 5,2 - - 5 3 - - SW 1027,5 45 0 0,0
23.09.2018 20:00:00 8,1 6,9 - - 4 2 - - SW 1026,5 40 0 0,2
23.09.2018 19:00:00 9,6 6,4 - - 4 2 - - E 1025,2 10 24 0,0
23.09.2018 18:00:00 10,0 5,7 - - 5 3 - - NNE 1024,1 50 24 0,4
23.09.2018 17:00:00 11,5 5,3 - - 8 4 - - NNW 1023,0 50 30 0,2
23.09.2018 16:00:00 11,8 6,3 - - 11 6 - - N 1022,3 21 6 0,0
23.09.2018 15:00:00 13,3 4,4 - - 21 11 - - N 1021,0 35 42 0,0
23.09.2018 14:00:00 12,4 2,7 - - 16 9 - - N 1020,0 29 42 0,0
23.09.2018 13:00:00 12,8 5,0 - - 21 11 - - N 1019,4 40 60 0,0
23.09.2018 12:00:00 12,1 5,0 - - 24 13 - - N 1018,6 35 42 0,0
23.09.2018 11:00:00 10,6 4,9 - - 21 11 - - NNW 1017,8 45 54 0,0
23.09.2018 10:00:00 8,1 5,2 11,7 14,5 13 7 - - NW 1017,4 10 0 0,0
23.09.2018 09:00:00 6,4 5,0 - - 4 2 - - N 1016,8 35 0 0,0
23.09.2018 08:00:00 4,2 3,3 - - 4 2 - - NE 1016,4 35 6 0,0
23.09.2018 07:00:00 3,4 2,2 - - 2 1 - - E 1016,1 45 0 0,0
23.09.2018 06:00:00 3,8 2,4 - - 5 3 - - NE 1016,1 35 0 0,0
23.09.2018 05:00:00 5,0 3,2 - - 4 2 - - W 1015,8 45 0 0,0
23.09.2018 04:00:00 3,3 1,7 - - 5 3 - - WNW 1016,1 40 0 0,0
23.09.2018 03:00:00 3,9 2,9 - - 2 1 - - E 1016,2 30 0 0,0
23.09.2018 02:00:00 5,1 3,4 - - 0 0 - - N 1016,0 30 0 0,0
23.09.2018 01:00:00 6,0 3,9 - - 4 2 - - NW 1016,2 40 - 0,0
23.09.2018 00:00:00 6,5 4,3 - - 5 3 - - ENE 1016,5 40 0 0,0
22.09.2018 23:00:00 6,6 3,9 - - 2 1 - - WNW 1016,3 45 0 0,0
22.09.2018 22:00:00 6,0 3,5 - - 5 3 - - W 1016,1 10 0 0,0
22.09.2018 21:00:00 6,4 3,5 - - 2 1 - - N 1015,9 30 0 0,0
22.09.2018 20:00:00 6,3 2,4 - - 9 5 - - W 1015,4 10 0 0,0
22.09.2018 19:00:00 10,0 4,4 - - 8 4 - - WSW 1015,1 10 0 0,0
22.09.2018 18:00:00 11,7 4,2 - - 11 6 - - WSW 1014,9 10 0 0,0
22.09.2018 17:00:00 12,2 4,1 - - 13 7 - - W 1015,1 45 0 0,0
22.09.2018 16:00:00 12,5 4,3 - - 16 9 - - WSW 1015,1 45 0 0,0
22.09.2018 15:00:00 13,0 4,3 - - 21 11 - - WSW 1015,5 35 0 0,0
22.09.2018 14:00:00 12,4 4,7 - - 24 13 - - WSW 1015,7 35 0 0,0
22.09.2018 13:00:00 12,3 4,8 - - 18 10 - - W 1015,9 35 0 0,0
22.09.2018 12:00:00 12,0 5,8 - - 16 9 - - WSW 1015,6 35 0 0,0
22.09.2018 11:00:00 11,1 5,4 - - 18 10 - - WSW 1015,7 40 0 0,0
22.09.2018 10:00:00 10,1 6,1 12,7 14,7 15 8 - - SW 1015,8 30 0 0,0
22.09.2018 09:00:00 8,9 5,5 - - 13 7 - - SSW 1015,3 26 0 0,0
22.09.2018 08:00:00 8,0 4,4 - - 9 5 - - SE 1015,3 35 0 0,0
22.09.2018 07:00:00 8,2 4,1 - - 16 9 - - WSW 1014,8 10 0 0,0
22.09.2018 06:00:00 8,0 4,6 - - 21 11 - - SW 1014,7 27 0 0,0
22.09.2018 05:00:00 7,3 4,0 - - 9 5 - - SSW 1014,5 23 0 0,0
22.09.2018 04:00:00 7,8 4,9 - - 15 8 - - SW 1014,1 23 0 0,0
22.09.2018 03:00:00 6,7 4,0 - - 11 6 - - SSW 1014,1 30 0 0,0
22.09.2018 02:00:00 8,0 4,7 - - 11 6 - - S 1013,4 45 0 0,0
22.09.2018 01:00:00 8,8 5,9 - - 11 6 - - W 1012,8 35 - 0,0
22.09.2018 00:00:00 7,7 5,4 - - 9 5 - - WSW 1012,5 50 0 0,0
21.09.2018 23:00:00 9,3 5,9 - - 18 10 - - W 1011,9 50 0 0,0
21.09.2018 22:00:00 9,0 5,3 - - 13 7 - - WSW 1011,2 40 0 0,0
21.09.2018 21:00:00 9,9 5,2 - - 18 10 - - W 1010,7 50 0 0,0
21.09.2018 20:00:00 10,1 6,1 - - 15 8 - - W 1009,4 50 0 0,0
21.09.2018 19:00:00 11,8 6,0 - - 26 14 - - WNW 1007,9 10 42 0,0
21.09.2018 18:00:00 12,8 6,8 - - 26 14 54 29 W 1006,2 50 60 0,0
21.09.2018 17:00:00 13,4 5,7 - - 34 18 55 30 WNW 1004,4 40 36 0,0
21.09.2018 16:00:00 13,0 7,3 - - 34 18 46 25 WNW 1003,0 50 30 0,2
21.09.2018 15:00:00 13,0 7,6 - - 26 14 - - W 1001,4 10 12 0,0
21.09.2018 14:00:00 11,6 7,0 - - 26 14 52 28 WSW 1000,9 35 30 0,0
21.09.2018 13:00:00 13,4 6,0 - - 31 17 54 29 WSW 1000,3 10 30 0,0
21.09.2018 12:00:00 11,3 6,0 - - 22 12 54 29 W 1000,0 10 0 0,0
21.09.2018 11:00:00 11,2 6,0 - - 28 15 46 25 WSW 999,4 10 0 0,0
21.09.2018 10:00:00 10,5 5,3 13,2 14,7 34 18 52 28 W 998,4 10 0 0,0
21.09.2018 09:00:00 8,8 5,8 - - 15 8 - - WSW 997,7 10 0 0,0
21.09.2018 08:00:00 8,5 5,5 - - 24 13 - - WSW 996,9 10 6 0,0
21.09.2018 07:00:00 7,4 4,6 - - 21 11 - - W 995,7 10 0 0,0
21.09.2018 06:00:00 7,1 4,2 - - 29 16 59 32 W 994,1 10 0 0,0
21.09.2018 05:00:00 6,8 4,4 - - 39 21 74 40 W 992,7 40 0 0,4
21.09.2018 04:00:00 6,6 4,1 - - 42 23 72 39 WNW 989,6 13 0 0,0
21.09.2018 03:00:00 9,6 9,3 - - 11 6 - - SW 985,3 30 0 0,0
21.09.2018 02:00:00 9,6 9,3 - - 15 8 - - N 986,4 35 0 0,6
21.09.2018 01:00:00 9,9 9,6 - - 18 10 - - NNW 987,6 23 - 1,0
21.09.2018 00:00:00 10,4 10,2 - - 5 3 - - NW 989,0 9 0 0,6
20.09.2018 23:00:00 10,4 10,2 - - 2 1 - - S 991,2 5 0 2,2
20.09.2018 22:00:00 10,2 10,0 - - 9 5 - - NE 993,5 4,8 0 2,4
20.09.2018 21:00:00 10,5 10,2 - - 8 4 - - N 996,2 3,4 0 3,4
20.09.2018 20:00:00 10,4 10,1 - - 11 6 - - N 997,4 3,6 0 1,4
20.09.2018 19:00:00 10,4 10,0 - - 11 6 - - NNE 998,9 8 0 1,2
20.09.2018 18:00:00 10,5 10,0 - - 9 5 - - NNE 1001,2 7 0 2,6
20.09.2018 17:00:00 10,9 9,8 - - 5 3 - - N 1002,7 5 0 3,6
20.09.2018 16:00:00 11,3 9,8 - - 8 4 - - SE 1004,0 5 0 2,4
20.09.2018 15:00:00 12,0 9,3 - - 13 7 - - S 1005,4 10 0 0,8
20.09.2018 14:00:00 13,6 9,2 - - 15 8 - - S 1006,4 10 0 0,0
20.09.2018 13:00:00 15,2 5,3 - - 21 11 - - SSW 1007,2 10 6 0,0
20.09.2018 12:00:00 16,4 7,5 - - 22 12 - - S 1007,9 10 48 0,0
20.09.2018 11:00:00 15,1 6,8 - - 21 11 - - SSW 1008,6 10 48 0,0
20.09.2018 10:00:00 13,6 8,5 13,7 14,7 21 11 - - S 1008,6 10 54 0,0
20.09.2018 09:00:00 12,6 8,7 - - 21 11 - - SSW 1008,8 10 48 0,0
20.09.2018 08:00:00 10,3 7,5 - - 13 7 - - SSE 1009,0 10 0 0,0
20.09.2018 07:00:00 9,7 7,1 - - 15 8 - - S 1008,8 10 0 0,0
20.09.2018 06:00:00 10,3 7,2 - - 16 9 - - S 1008,6 10 0 0,0
20.09.2018 05:00:00 10,6 7,0 - - 15 8 - - S 1008,5 21 0 0,0
20.09.2018 04:00:00 10,5 7,3 - - 13 7 - - SSW 1008,5 22 0 0,0
20.09.2018 03:00:00 10,8 7,7 - - 18 10 - - SSW 1008,5 20 0 0,0
20.09.2018 02:00:00 11,0 7,7 - - 18 10 - - S 1008,2 20 0 0,0
20.09.2018 01:00:00 11,0 8,0 - - 21 11 - - SSW 1008,2 22 - 0,0
20.09.2018 00:00:00 10,6 8,0 - - 18 10 - - SW 1008,7 27 0 0,6
19.09.2018 23:00:00 12,2 7,9 - - 18 10 46 25 SSW 1007,8 17 0 0,0
19.09.2018 22:00:00 12,4 7,7 - - 29 16 - - SW 1007,3 10 0 0,0
19.09.2018 21:00:00 11,8 7,7 - - 21 11 54 29 SSW 1006,9 20 0 0,0
19.09.2018 20:00:00 13,0 6,2 - - 37 20 50 27 SW 1006,5 29 0 0,0
19.09.2018 19:00:00 14,3 6,2 - - 35 19 55 30 SW 1005,6 19 0 0,0
19.09.2018 18:00:00 14,7 6,0 - - 35 19 63 34 SW 1004,9 20 24 0,0
19.09.2018 17:00:00 15,7 5,5 - - 44 24 78 42 SW 1003,9 22 36 0,0
19.09.2018 16:00:00 16,4 4,4 - - 48 26 87 47 WSW 1002,9 21 60 0,0
19.09.2018 15:00:00 18,2 7,8 - - 50 27 91 49 WSW 1000,6 17 60 0,0
19.09.2018 14:00:00 17,5 10,9 - - 46 25 87 47 SW 999,5 10 36 0,2
19.09.2018 13:00:00 18,4 12,3 - - 50 27 85 46 SSW 997,9 7 6 0,0
19.09.2018 12:00:00 20,0 11,3 - - 41 22 65 35 S 998,1 10 12 0,0
19.09.2018 11:00:00 18,5 11,1 - - 35 19 67 36 S 1000,1 10 0 0,0

tt = temperature
td = dewpoint
tt -20cm = temperature -20cm
tt -100cm = temperature -100cm
ff = wind speed
fx = gusts
dd = wind direction
ppp = reduced air pressure
vv = visibility
sd = sunshine duration
rr = precipitation

Next stations